Regional Weather Roundup
Issued by NWS Sterling, VA

Home | Current Version | Previous Version | Graphics & Text | Print | Product List | Glossary On
Versions: 1 2 3 4 5 6 7 8 9 10 11 12 13 14 15 16 17 18 19 20 21 22 23 24 25 26 27 28 29 30 31 32 33 34 35 36 37 38 39 40 41 42 43 44 45 46 47 48 49 50
000
ASUS41 KLWX 131710
RWRLWX

REGIONAL WEATHER ROUNDUP
NATIONAL WEATHER SERVICE BALTIMORE MD/WASHINGTON DC
100 PM EDT SUN JUL 13 2014

Note: "FAIR" indicates few or no clouds below 12,000 feet
with no significant weather and/or obstructions to visibility.
 TC=TEMPERATURE CELSIUS

 * =Non NWS site. Station does not report precipitation (e.g. rain,
    snow, etc.), thunder, or fog.

DCZ001-MDZ009-015-VAZ040>042-051-053>054-131800-
WASHINGTON METRO

CITY           SKY/WX    TMP DP  RH WIND       PRES   REMARKS
WASHINGTON NAT PTSUNNY   88  72  58 S15       30.02F HX  94
DULLES         PTSUNNY   84  71  65 SW9       30.02F
ANDREWS AFB    MOSUNNY   88  73  60 S10       30.03F HX  96
FT BELVOIR     MOSUNNY   88  72  59 S8        30.03F HX  94
QUANTICO       SUNNY     87  71  58 SW10      30.03F HX  93
COLLEGE PARK*  MOSUNNY   88  72  58 S7        30.02S HX  94
LEESBURG*      MOSUNNY   88  73  62 S10       30.03S HX  96
GAITHERSBURG*  PTSUNNY   88  72  58 SW6       30.06F HX  94

$$

MDZ006>007-011-014-131800-
BALTIMORE METRO

CITY           SKY/WX    TMP DP  RH WIND       PRES   REMARKS
BWI AIRPORT    PTSUNNY   89  68  49 SW7G16    30.01F HX  93
MD SCIENCE CTR   N/A     90  69  50 MISG      30.00F HX  94
MARTIN STATE   PTSUNNY   86  79  79 SE14      30.02F HX  99
ANNAPOLIS      SUNNY     87  73  62 S10       30.01F HX  94
FORT MEADE*    PTSUNNY   86  70  58 SW6       30.03F HX  90

$$

MDZ012-015-019>023-131800-
MARYLAND EASTERN SHORE

CITY           SKY/WX    TMP DP  RH WIND       PRES   REMARKS
OCEAN CITY     MOSUNNY   80  73  79 S10G21    30.08F
SALISBURY      MOSUNNY   90  71  53 S17       30.06F HX  96
BAY BRIDGE AP*   N/A     86  70  58 S9G17     30.03S HX  90
EASTON*        MOSUNNY   90  73  58 SW13G18   30.07F HX  98

$$

MDZ017>025-131800-
SOUTHERN MARYLAND

CITY           SKY/WX    TMP DP  RH WIND       PRES   REMARKS
PATUXENT RIVER PTSUNNY   86  71  60 SW13G21   30.04F HX  91
ST INIGOES     MOSUNNY   86  73  65 S8        30.05S HX  93
LEONARDTOWN*   MOSUNNY   86  68  54 SW13      30.06F

$$

MDZ003>005-131800-
NORTH CENTRAL MARYLAND

CITY           SKY/WX    TMP DP  RH WIND       PRES   REMARKS
FREDERICK*     CLOUDY    84  75  74 S5        30.04F HX  92
HAGERSTOWN APT CLOUDY    83  69  62 S10       30.01S
WESTMINSTER*   PTSUNNY   84  72  65 S6        30.03F

$$

MDZ501>502-131800-
WESTERN MARYLAND

CITY           SKY/WX    TMP DP  RH WIND       PRES   REMARKS
OAKLAND*       PTSUNNY   75  59  57 SW10G22   30.13S
CUMBERLAND*    PTSUNNY   84  72  65 SW3       30.04F

$$

VAZ025>031-131800-
SHENANDOAH VALLEY

CITY           SKY/WX    TMP DP  RH WIND       PRES   REMARKS
WINCHESTER*    CLOUDY    82  70  65 S7        30.03S
STAUNTON*      MOSUNNY   88  62  41 W9G17     30.08F

$$

WVZ021-048>050-054>055-131800-
EASTERN WEST VIRGINIA PANHANDLE

CITY           SKY/WX    TMP DP  RH WIND       PRES   REMARKS
MARTINSBURG    CLOUDY    83  68  60 S8        30.02S
PETERSBURG*    PTSUNNY   84  62  46 SE5       30.03F

$$

VAZ036>039-050-131800-
CENTRAL FOOTHILLS

CITY           SKY/WX    TMP DP  RH WIND       PRES   REMARKS
CHARLOTTESVILL MOSUNNY   86  70  58 SW13      30.05F HX  90
ORANGE*        MOSUNNY   90  70  51 S9        30.06S HX  95

$$

VAZ055>057-131800-
NORTH AND CENTRAL PIEDMONT

CITY           SKY/WX    TMP DP  RH WIND       PRES   REMARKS
FREDERICKSBRG* SUNNY     91  69  48 SW12G17   30.03F HX  96
STAFFORD*      SUNNY     89  70  54 S8        30.07F HX  94

$$

NCZ024-NYZ072-PAZ021-071-VAZ022-071-131800-
OTHER REGIONAL OBSERVATIONS

CITY           SKY/WX    TMP DP  RH WIND       PRES   REMARKS
NEW YORK CITY  MOSUNNY   81  68  64 VRB5      30.05F
PHILADELPHIA   PTSUNNY   88  69  53 SW13G21   30.01F HX  92
PITTSBURGH     CLOUDY    82  68  62 SW10      29.96S
ROANOKE        MOSUNNY   87  67  51 SW8       30.11F HX  90
RICHMOND       PTSUNNY   92  65  40 SW16G26   30.06F HX  94
RALEIGH        PTSUNNY   90  68  48 SW8       30.12F HX  94

$$

ANZ530>537-131800-
MARINE OBSERVATIONS

STATION/POSITION TIME  TEMP    WIND        PRES
                       AIR SEA DIR/SP/G
                 (UTC) (F)     (DEG/KT/KT) (MB)
THOMAS PT LIGHT  1700   81 80  160/ 12/ 13 1017.0F
BALT KEY BRIDGE  1700   96     150/  6/ 10 1015.9F
COVE POINT       1700   84     230/ 12/ 15 1017.2F
LEWISETTA        1700   84 80  210/  9/ 12 1017.4F
SOLOMONS ISLAND  1700      80                N/A
PINEY POINT      1700          220/  7/  8   N/A

$$



USA.gov is the U.S. government's official web portal to all federal, state and local government web resources and services.